******************************************************************************* JPL/HORIZONS Catalina (C/2013 US10) 2025-Dec-12 17:56:42 Rec #:90004243 (+COV) Soln.date: 2024-Dec-12_17:11:30 # obs: 4396 (2013-2017) IAU76/J2000 helio. ecliptic osc. elements (au, days, deg., period=Julian yrs): EPOCH= 2457349.5 ! 2015-Nov-23.0000000 (TDB) RMSW= n.a. EC= 1.000280154550372 QR= .8229694542126116 TP= 2457342.2216414325 OM= 186.1445800953977 W= 340.3587546222761 IN= 148.8782967933228 A= -2937.555192732581 MA= 4.5056605385089E-5 ADIST= 9.999999E99 PER= 9.999999E99 N= 6.19E-6 ANGMOM= .022070832 DAN= .84763 DDN= 28.42123 L= 203.1339529 B= -10.0048286 MOID= .13859899 TP= 2015-Nov-15.7216414325 Comet physical (GM= km^3/s^2; RAD= km): GM= n.a. RAD= n.a. M1= 8.5 M2= n.a. k1= 6.25 k2= n.a. PHCOF= n.a. Comet non-gravitational force model (AMRAT=m^2/kg;A1-A3=au/d^2;DT=days;R0=au): AMRAT= 0. DT= 0. A1= 7.567368745804E-9 A2= 6.486925296485E-11 A3= 1.613417267799E-10 Standard model: ALN= .1112620426 NK= 4.6142 NM= 2.15 NN= 5.093 R0= 2.808 COMET comments 1: soln ref.= JPL#85, data arc: 2013-08-14 to 2017-11-16 2: k1=6.25; ******************************************************************************* ******************************************************************************* Ephemeris / WWW_USER Fri Dec 12 17:56:42 2025 Pasadena, USA / Horizons ******************************************************************************* Target body name: Catalina (C/2013 US10) {source: JPL#85} Center body name: Earth (399) {source: DE441} Center-site name: GEOCENTRIC ******************************************************************************* Start time : A.D. 2227-Aug-16 00:00:00.0000 UT Stop time : A.D. 2227-Aug-20 00:00:00.0000 UT Step-size : 1440 minutes ******************************************************************************* Target pole/equ : undefined Target radii : undefined Center geodetic : 0.0, 0.0, -6378.137 {E-lon(deg),Lat(deg),Alt(km)} Center cylindric: 0.0, 0.0, 0.0 {E-lon(deg),Dxy(km),Dz(km)} Center pole/equ : ITRF93 {East-longitude positive} Center radii : 6378.137, 6378.137, 6356.752 km {Equator_a, b, pole_c} Target primary : Sun Vis. interferer : MOON (R_eq= 1737.400) km {source: DE441} Rel. light bend : Sun {source: DE441} Rel. lght bnd GM: 1.3271E+11 km^3/s^2 Small-body perts: Yes {source: SB441-N16} Atmos refraction: NO (AIRLESS) RA format : HMS Time format : CAL Calendar mode : Mixed Julian/Gregorian EOP file : eop.251212.p260310 EOP coverage : DATA-BASED 1962-JAN-20 TO 2025-DEC-12. PREDICTS-> 2026-MAR-09 Units conversion: 1 au= 149597870.700 km, c= 299792.458 km/s, 1 day= 86400.0 s Table cut-offs 1: Elevation (-90.0deg=NO ),Airmass (>38.000=NO), Daylight (NO ) Table cut-offs 2: Solar elongation ( 0.0,180.0=NO ),Local Hour Angle( 0.0=NO ) Table cut-offs 3: RA/DEC angular rate ( 0.0=NO ) ******************************************************************************* Initial IAU76/J2000 heliocentric ecliptic osculating elements (au, days, deg.): EPOCH= 2457349.5 ! 2015-Nov-23.0000000 (TDB) RMSW= n.a. EC= 1.000280154550372 QR= .8229694542126116 TP= 2457342.2216414325 OM= 186.1445800953977 W= 340.3587546222761 IN= 148.8782967933228 Equivalent ICRF heliocentric cartesian coordinates (au, au/d): X=-8.166013298200067E-01 Y=-1.331245078832981E-01 Z=-1.082949917902556E-01 VX=-8.295083504662234E-03 VY= 1.435125293136784E-02 VZ= 2.084664304167158E-02 Comet physical (GM= km^3/s^2; RAD= km): GM= n.a. RAD= n.a. M1= 8.5 M2= n.a. k1= 6.25 k2= n.a. PHCOF= n.a. Comet non-gravitational force model (AMRAT=m^2/kg;A1-A3=au/d^2;DT=days;R0=au): AMRAT= 0. DT= 0. A1= 7.567368745804E-9 A2= 6.486925296485E-11 A3= 1.613417267799E-10 Standard model: ALN= .1112620426 NK= 4.6142 NM= 2.15 NN= 5.093 R0= 2.808 ************************************************************************************************** Date__(UT)__HR:MN r rdot VmagSn VmagOb RNG_3sigma RNGRT_3sig ************************************************************************************************** $$SOE 2227-Aug-16 00:00 199.9982344315 3.0030632 3.0088544 26.7284647 2018192.96 0.0004044 2227-Aug-17 00:00 199.9999689789 3.0030480 3.0088400 26.7542374 2018220.76 0.0004044 2227-Aug-18 00:00 200.0017035166 3.0030329 3.0088256 26.7806119 2018248.05 0.0004044 2227-Aug-19 00:00 200.0034380445 3.0030178 3.0088113 26.8076216 2018274.83 0.0004044 2227-Aug-20 00:00 200.0051725626 3.0030027 3.0087970 26.8353075 2018301.09 0.0004044 $$EOE ************************************************************************************************** Column meaning: TIME Times PRIOR to 1962 are UT1, a mean-solar time closely related to the prior but now-deprecated GMT. Times AFTER 1962 are in UTC, the current civil or "wall-clock" time-scale. UTC is kept within 0.9 seconds of UT1 using integer leap-seconds for 1972 and later years. Conversion from the internal Barycentric Dynamical Time (TDB) of solar system dynamics to the non-uniform civil UT time-scale requested for output has not been determined for UTC times after the next July or January 1st. Therefore, the last known leap-second is used as a constant over future intervals. Time tags refer to the UT time-scale conversion from TDB on Earth regardless of observer location within the solar system, although clock rates may differ due to the local gravity field and no analog to "UT" may be defined for that location. Any 'b' symbol in the 1st-column denotes a B.C. date. First-column blank (" ") denotes an A.D. date. CALENDAR SYSTEM Mixed calendar mode was active such that calendar dates after AD 1582-Oct-15 (if any) are in the modern Gregorian system. Dates prior to 1582-Oct-5 (if any) are in the Julian calendar system, which is automatically extended for dates prior to its adoption on 45-Jan-1 BC. The Julian calendar is useful for matching historical dates. The Gregorian calendar more accurately corresponds to the Earth's orbital motion and seasons. A "Gregorian-only" calendar mode is available if such physical events are the primary interest. NOTE: "n.a." in output means quantity "not available" at the print-time. STATISTICAL UNCERTAINTIES Output includes formal +/- 3 standard-deviation statistical orbit uncertainty quantities. There is a 99.7% (1-D) or 98.9% (2-D) chance the actual value is within given bounds. These statistical calculations assume observational data errors are random. If there are systematic biases (such as timing, reduction or star-catalog errors), results can be optimistic. Because the epoch covariance is mapped using linearized variational partial derivatives, results can also be optimistic for times far from the solution epoch, particularly for objects having close planetary encounters. 'r rdot' = The Sun's apparent range ("r", light-time aberrated) and range-rate ("rdot") relative to the target center, as seen by the observer. A positive "rdot" means the target center was moving away from the Sun, negative means moving toward the Sun. Units: AU and KM/S 'VmagSn VmagOb' = Magnitude of target centers' velocity with respect to the Sun ("VmagSn") and the observer ("VmagOb") at the time light left the target center to be observed (print time minus down-leg light-time). These are absolute values of the velocity vectors (total speeds) and do NOT indicate direction of motion. Units: KM/S 'RNG_3sigma RNGRT_3sig' = Range and range rate (radial velocity) formal 3-standard-deviation uncertainties. Units: KM, KM/S Computations by ... Solar System Dynamics Group, Horizons On-Line Ephemeris System 4800 Oak Grove Drive, Jet Propulsion Laboratory Pasadena, CA 91109 USA General site: https://ssd.jpl.nasa.gov/ Mailing list: https://ssd.jpl.nasa.gov/email_list.html System news : https://ssd.jpl.nasa.gov/horizons/news.html User Guide : https://ssd.jpl.nasa.gov/horizons/manual.html Connect : browser https://ssd.jpl.nasa.gov/horizons/app.html#/x API https://ssd-api.jpl.nasa.gov/doc/horizons.html command-line telnet ssd.jpl.nasa.gov 6775 e-mail/batch https://ssd.jpl.nasa.gov/ftp/ssd/horizons_batch.txt scripts https://ssd.jpl.nasa.gov/ftp/ssd/SCRIPTS Author : Jon.D.Giorgini@jpl.nasa.gov ************************************************************************************************** !$$SOF COMMAND = '2013 US10' QUANTITIES = '19,22,39' START_TIME = '2227-08-16' STEP_SIZE = '1 day' STOP_TIME = '2227-08-20'